OYJBA EKSB-EDDC

Flight info

Callsign OYJBA
Flight time 1h 38m
Altitude 7500
Route ALS DCT BKD DCT EDUZ DCT EDOG
Aircraft BE9L/L-SBDFGRY/SB1

Departure

Time 2026-04-21 15:16
Airport Sønderborg Airport (EKSB)

Arrival

Time 2026-04-21 16:54
Airport Dresden Airport (EDDC)
Time Latitude Longitude Altitude Speed Heading
2026-04-21 14:59 54.96300 9.78709 18 ft 0 kts 320°
2026-04-21 15:13 54.96301 9.78708 18 ft 2 kts 320°
2026-04-21 15:13 54.96335 9.78737 17 ft 12 kts 50°
2026-04-21 15:13 54.96415 9.78900 14 ft 15 kts 50°
2026-04-21 15:13 54.96442 9.78956 14 ft 0 kts 50°
2026-04-21 15:15 54.96489 9.79063 14 ft 12 kts 79°
2026-04-21 15:15 54.96376 9.79266 14 ft 52 kts 139°
2026-04-21 15:16 54.95926 9.79933 33 ft 106 kts 140°
2026-04-21 15:16 54.95375 9.80797 357 ft 111 kts 131°
2026-04-21 15:16 54.94999 9.81937 795 ft 113 kts 120°
2026-04-21 15:16 54.94563 9.83087 1253 ft 111 kts 112°
2026-04-21 15:17 54.94228 9.84267 1724 ft 109 kts 111°
2026-04-21 15:17 54.93917 9.85437 2174 ft 108 kts 109°
2026-04-21 15:17 54.93611 9.86618 2608 ft 109 kts 111°
2026-04-21 15:17 54.93328 9.87804 3050 ft 108 kts 106°
2026-04-21 15:18 54.92993 9.88996 3463 ft 109 kts 107°
2026-04-21 15:18 54.92715 9.90176 3914 ft 107 kts 105°
2026-04-21 15:18 54.92445 9.91347 4339 ft 106 kts 106°
2026-04-21 15:18 54.92168 9.92598 4685 ft 113 kts 103°
2026-04-21 15:19 54.91880 9.93841 5131 ft 111 kts 105°
2026-04-21 15:19 54.91603 9.95067 5570 ft 109 kts 106°
2026-04-21 15:19 54.91297 9.96264 5969 ft 111 kts 107°
2026-04-21 15:19 54.90992 9.97471 6376 ft 110 kts 107°
2026-04-21 15:20 54.90686 9.98670 6798 ft 110 kts 110°
2026-04-21 15:20 54.90066 9.99552 7144 ft 124 kts 144°
2026-04-21 15:20 54.89319 10.00250 7573 ft 121 kts 140°
2026-04-21 15:20 54.88573 10.00993 7818 ft 134 kts 143°
2026-04-21 15:21 54.87665 10.01807 7784 ft 163 kts 145°
2026-04-21 15:21 54.86638 10.02747 7947 ft 172 kts 146°
2026-04-21 15:21 54.85508 10.03735 7897 ft 191 kts 147°
2026-04-21 15:21 54.84287 10.04797 7909 ft 203 kts 148°
2026-04-21 15:22 54.82983 10.05928 7916 ft 212 kts 148°
2026-04-21 15:22 54.81656 10.07076 7889 ft 218 kts 148°
2026-04-21 15:22 54.80292 10.08258 7880 ft 221 kts 148°
2026-04-21 15:22 54.78905 10.09461 7881 ft 223 kts 148°
2026-04-21 15:23 54.77522 10.10659 7875 ft 223 kts 148°
2026-04-21 15:23 54.76128 10.11866 7889 ft 224 kts 148°
2026-04-21 15:23 54.74736 10.13069 7888 ft 225 kts 148°
2026-04-21 15:23 54.73338 10.14280 7884 ft 225 kts 148°
2026-04-21 15:24 54.71950 10.15479 7863 ft 225 kts 148°
2026-04-21 15:24 54.70539 10.16697 7891 ft 225 kts 148°
2026-04-21 15:24 54.69144 10.17902 7892 ft 226 kts 148°
2026-04-21 15:24 54.67744 10.19110 7881 ft 226 kts 148°
2026-04-21 15:25 54.66340 10.20318 7879 ft 226 kts 148°
2026-04-21 15:25 54.64923 10.21542 7859 ft 225 kts 148°
2026-04-21 15:25 54.63530 10.22737 7896 ft 224 kts 148°
2026-04-21 15:25 54.62133 10.23941 7884 ft 226 kts 148°
2026-04-21 15:26 54.60732 10.25142 7880 ft 226 kts 148°
2026-04-21 15:26 54.59322 10.26352 7870 ft 226 kts 148°
2026-04-21 15:26 54.57927 10.27547 7871 ft 225 kts 148°
2026-04-21 15:26 54.56522 10.28752 7873 ft 225 kts 148°
2026-04-21 15:27 54.55128 10.29943 7874 ft 225 kts 148°
2026-04-21 15:27 54.53724 10.31146 7872 ft 226 kts 148°
2026-04-21 15:27 54.52319 10.32345 7868 ft 226 kts 148°
2026-04-21 15:27 54.50917 10.33543 7872 ft 225 kts 148°
2026-04-21 15:28 54.49517 10.34742 7868 ft 225 kts 148°
2026-04-21 15:28 54.48126 10.35926 7866 ft 225 kts 148°
2026-04-21 15:28 54.46713 10.37131 7881 ft 225 kts 148°
2026-04-21 15:28 54.45322 10.38314 7874 ft 226 kts 148°
2026-04-21 15:29 54.43915 10.39514 7872 ft 225 kts 148°
2026-04-21 15:29 54.42503 10.40713 7873 ft 226 kts 148°
2026-04-21 15:29 54.41111 10.41896 7865 ft 225 kts 148°
2026-04-21 15:29 54.39706 10.43088 7872 ft 225 kts 148°
2026-04-21 15:30 54.38305 10.44279 7861 ft 225 kts 148°
2026-04-21 15:30 54.36891 10.45478 7872 ft 225 kts 148°
2026-04-21 15:30 54.35495 10.46659 7873 ft 225 kts 148°
2026-04-21 15:30 54.34098 10.47842 7879 ft 225 kts 148°
2026-04-21 15:31 54.32696 10.49029 7880 ft 226 kts 148°
2026-04-21 15:31 54.31282 10.50224 7867 ft 226 kts 148°
2026-04-21 15:31 54.29871 10.51411 7866 ft 226 kts 148°
2026-04-21 15:31 54.28493 10.52569 7863 ft 215 kts 148°
2026-04-21 15:32 54.27169 10.53687 7858 ft 206 kts 147°
2026-04-21 15:32 54.25889 10.54767 7865 ft 207 kts 147°
2026-04-21 15:32 54.24601 10.55855 7867 ft 209 kts 147°
2026-04-21 15:32 54.23295 10.56954 7872 ft 210 kts 147°
2026-04-21 15:33 54.21984 10.58056 7863 ft 212 kts 147°
2026-04-21 15:33 54.20659 10.59167 7858 ft 212 kts 147°
2026-04-21 15:33 54.19340 10.60275 7857 ft 212 kts 147°
2026-04-21 15:33 54.18010 10.61393 7854 ft 213 kts 147°
2026-04-21 15:34 54.16692 10.62498 7856 ft 213 kts 147°
2026-04-21 15:34 54.15349 10.63621 7855 ft 213 kts 147°
2026-04-21 15:34 54.14027 10.64729 7852 ft 213 kts 147°
2026-04-21 15:34 54.12703 10.65836 7857 ft 213 kts 148°
2026-04-21 15:35 54.11375 10.66951 7855 ft 213 kts 148°
2026-04-21 15:35 54.10047 10.68059 7854 ft 213 kts 148°
2026-04-21 15:35 54.08717 10.69168 7846 ft 213 kts 148°
2026-04-21 15:35 54.07383 10.70280 7859 ft 212 kts 148°
2026-04-21 15:36 54.06053 10.71386 7852 ft 213 kts 148°
2026-04-21 15:36 54.04714 10.72501 7852 ft 214 kts 148°
2026-04-21 15:36 54.03398 10.73599 7848 ft 214 kts 148°
2026-04-21 15:36 54.02064 10.74710 7849 ft 213 kts 148°
2026-04-21 15:37 54.00724 10.75824 7827 ft 213 kts 148°
2026-04-21 15:37 53.99389 10.76933 7840 ft 213 kts 148°
2026-04-21 15:37 53.98066 10.78031 7842 ft 213 kts 148°
2026-04-21 15:37 53.96741 10.79133 7848 ft 213 kts 148°
2026-04-21 15:38 53.95397 10.80246 7843 ft 213 kts 148°
2026-04-21 15:38 53.94065 10.81351 7839 ft 213 kts 148°
2026-04-21 15:38 53.92742 10.82446 7842 ft 213 kts 148°
2026-04-21 15:38 53.91418 10.83540 7846 ft 213 kts 148°
2026-04-21 15:39 53.90084 10.84645 7822 ft 212 kts 148°
2026-04-21 15:39 53.88760 10.85737 7842 ft 211 kts 148°
2026-04-21 15:39 53.87446 10.86824 7843 ft 212 kts 148°
2026-04-21 15:39 53.86111 10.87922 7839 ft 212 kts 148°
2026-04-21 15:40 53.84795 10.89008 7861 ft 212 kts 148°
2026-04-21 15:40 53.83465 10.90104 7846 ft 213 kts 148°
2026-04-21 15:40 53.82127 10.91207 7848 ft 213 kts 148°
2026-04-21 15:40 53.80795 10.92303 7848 ft 213 kts 148°
2026-04-21 15:41 53.79457 10.93402 7856 ft 213 kts 148°
2026-04-21 15:41 53.78132 10.94491 7852 ft 214 kts 148°
2026-04-21 15:41 53.76795 10.95587 7845 ft 214 kts 148°
2026-04-21 15:41 53.75454 10.96685 7848 ft 214 kts 148°
2026-04-21 15:42 53.74124 10.97776 7843 ft 213 kts 148°
2026-04-21 15:42 53.72778 10.98878 7836 ft 213 kts 148°
2026-04-21 15:42 53.71444 10.99970 7844 ft 213 kts 148°
2026-04-21 15:42 53.70112 11.01059 7852 ft 214 kts 148°
2026-04-21 15:43 53.68783 11.02146 7840 ft 214 kts 148°
2026-04-21 15:43 53.67450 11.03235 7841 ft 214 kts 148°
2026-04-21 15:43 53.66110 11.04329 7844 ft 214 kts 148°
2026-04-21 15:43 53.64762 11.05429 7833 ft 215 kts 148°
2026-04-21 15:44 53.63421 11.06522 7833 ft 214 kts 148°
2026-04-21 15:44 53.62072 11.07619 7836 ft 214 kts 148°
2026-04-21 15:44 53.60730 11.08713 7833 ft 214 kts 148°
2026-04-21 15:44 53.59388 11.09804 7832 ft 214 kts 148°
2026-04-21 15:45 53.58048 11.10892 7827 ft 214 kts 148°
2026-04-21 15:45 53.56699 11.11985 7829 ft 214 kts 148°
2026-04-21 15:45 53.55377 11.13060 7828 ft 214 kts 148°
2026-04-21 15:45 53.54031 11.14153 7824 ft 214 kts 148°
2026-04-21 15:46 53.52681 11.15245 7823 ft 214 kts 148°
2026-04-21 15:46 53.51356 11.16318 7823 ft 214 kts 148°
2026-04-21 15:46 53.50016 11.17404 7827 ft 214 kts 148°
2026-04-21 15:46 53.48668 11.18492 7824 ft 214 kts 148°
2026-04-21 15:47 53.47325 11.19577 7825 ft 214 kts 148°
2026-04-21 15:47 53.45993 11.20652 7830 ft 214 kts 148°
2026-04-21 15:47 53.44656 11.21730 7827 ft 214 kts 148°
2026-04-21 15:47 53.43317 11.22810 7825 ft 214 kts 148°
2026-04-21 15:48 53.41968 11.23899 7819 ft 214 kts 148°
2026-04-21 15:48 53.40622 11.24982 7821 ft 214 kts 148°
2026-04-21 15:48 53.39286 11.26055 7815 ft 214 kts 148°
2026-04-21 15:48 53.37945 11.27135 7814 ft 214 kts 148°
2026-04-21 15:49 53.36597 11.28219 7812 ft 214 kts 148°
2026-04-21 15:49 53.35264 11.29289 7809 ft 214 kts 148°
2026-04-21 15:49 53.33920 11.30368 7808 ft 214 kts 148°
2026-04-21 15:49 53.32576 11.31443 7812 ft 214 kts 148°
2026-04-21 15:50 53.31225 11.32527 7809 ft 215 kts 148°
2026-04-21 15:50 53.29881 11.33601 7810 ft 215 kts 148°
2026-04-21 15:50 53.28545 11.34672 7797 ft 215 kts 148°
2026-04-21 15:50 53.27198 11.35749 7806 ft 215 kts 148°
2026-04-21 15:51 53.25844 11.36832 7805 ft 215 kts 148°
2026-04-21 15:51 53.24503 11.37904 7807 ft 215 kts 148°
2026-04-21 15:51 53.23165 11.38969 7810 ft 215 kts 148°
2026-04-21 15:51 53.21804 11.40063 7801 ft 215 kts 148°
2026-04-21 15:52 53.20465 11.41136 7804 ft 215 kts 148°
2026-04-21 15:52 53.19120 11.42215 7804 ft 215 kts 148°
2026-04-21 15:52 53.17777 11.43283 7802 ft 215 kts 148°
2026-04-21 15:52 53.16421 11.44353 7796 ft 215 kts 148°
2026-04-21 15:53 53.15080 11.45411 7797 ft 215 kts 148°
2026-04-21 15:53 53.13742 11.46471 7801 ft 215 kts 148°
2026-04-21 15:53 53.12379 11.47550 7799 ft 215 kts 148°
2026-04-21 15:53 53.11037 11.48616 7801 ft 215 kts 148°
2026-04-21 15:54 53.09692 11.49679 7804 ft 215 kts 148°
2026-04-21 15:54 53.08342 11.50750 7796 ft 215 kts 148°
2026-04-21 15:54 53.06992 11.51817 7791 ft 215 kts 148°
2026-04-21 15:54 53.05643 11.52883 7794 ft 215 kts 148°
2026-04-21 15:55 53.04287 11.53953 7791 ft 215 kts 148°
2026-04-21 15:55 53.02920 11.54946 7793 ft 217 kts 154°
2026-04-21 15:55 53.01502 11.55779 7796 ft 217 kts 154°
2026-04-21 15:55 53.00085 11.56630 7796 ft 217 kts 154°
2026-04-21 15:56 52.98661 11.57475 7799 ft 217 kts 154°
2026-04-21 15:56 52.97242 11.58322 7794 ft 217 kts 154°
2026-04-21 15:56 52.95828 11.59165 7791 ft 217 kts 154°
2026-04-21 15:56 52.94415 11.60009 7788 ft 217 kts 154°
2026-04-21 15:57 52.92986 11.60860 7795 ft 217 kts 154°
2026-04-21 15:57 52.91555 11.61710 7799 ft 218 kts 154°
2026-04-21 15:57 52.90148 11.62546 7798 ft 218 kts 154°
2026-04-21 15:57 52.88721 11.63393 7791 ft 218 kts 154°
2026-04-21 15:58 52.87289 11.64243 7786 ft 218 kts 154°
2026-04-21 15:58 52.85870 11.65086 7783 ft 218 kts 155°
2026-04-21 15:58 52.84441 11.65933 7786 ft 218 kts 155°
2026-04-21 15:58 52.83028 11.66766 7788 ft 218 kts 155°
2026-04-21 15:59 52.81602 11.67610 7790 ft 218 kts 155°
2026-04-21 15:59 52.80181 11.68451 7787 ft 218 kts 155°
2026-04-21 15:59 52.78750 11.69297 7786 ft 218 kts 155°
2026-04-21 15:59 52.77321 11.70144 7783 ft 218 kts 155°
2026-04-21 16:00 52.75886 11.70994 7782 ft 218 kts 155°
2026-04-21 16:00 52.74476 11.71823 7785 ft 218 kts 155°
2026-04-21 16:00 52.73043 11.72667 7787 ft 218 kts 155°
2026-04-21 16:00 52.71618 11.73505 7786 ft 218 kts 155°
2026-04-21 16:01 52.70190 11.74346 7781 ft 219 kts 155°
2026-04-21 16:01 52.68755 11.75191 7781 ft 218 kts 155°
2026-04-21 16:01 52.67332 11.76028 7779 ft 219 kts 155°
2026-04-21 16:01 52.65885 11.76875 7783 ft 218 kts 155°
2026-04-21 16:02 52.64451 11.77716 7790 ft 218 kts 155°
2026-04-21 16:02 52.63011 11.78561 7787 ft 218 kts 155°
2026-04-21 16:02 52.61593 11.79393 7785 ft 218 kts 155°
2026-04-21 16:02 52.60166 11.80228 7783 ft 218 kts 155°
2026-04-21 16:03 52.58730 11.81075 7779 ft 218 kts 155°
2026-04-21 16:03 52.57306 11.81904 7777 ft 218 kts 155°
2026-04-21 16:03 52.55866 11.82739 7780 ft 218 kts 156°
2026-04-21 16:03 52.54441 11.83560 7780 ft 218 kts 155°
2026-04-21 16:04 52.53026 11.84393 7779 ft 218 kts 155°
2026-04-21 16:04 52.51580 11.85241 7767 ft 218 kts 155°
2026-04-21 16:04 52.50155 11.86075 7766 ft 218 kts 155°
2026-04-21 16:04 52.48716 11.86914 7767 ft 218 kts 155°
2026-04-21 16:05 52.47287 11.87746 7771 ft 218 kts 155°
2026-04-21 16:05 52.45858 11.88577 7769 ft 219 kts 155°
2026-04-21 16:05 52.44432 11.89408 7770 ft 219 kts 156°
2026-04-21 16:05 52.43012 11.90233 7772 ft 219 kts 155°
2026-04-21 16:06 52.41574 11.91068 7771 ft 219 kts 155°
2026-04-21 16:06 52.40144 11.91897 7768 ft 219 kts 156°
2026-04-21 16:06 52.38710 11.92731 7764 ft 219 kts 156°
2026-04-21 16:06 52.37271 11.93564 7766 ft 219 kts 156°
2026-04-21 16:07 52.35843 11.94388 7769 ft 219 kts 156°
2026-04-21 16:07 52.34415 11.95213 7771 ft 219 kts 156°
2026-04-21 16:07 52.32967 11.96050 7767 ft 219 kts 156°
2026-04-21 16:07 52.31549 11.96869 7767 ft 219 kts 156°
2026-04-21 16:08 52.28677 11.98529 7760 ft 219 kts 156°
2026-04-21 16:08 52.27233 11.99362 7757 ft 219 kts 156°
2026-04-21 16:08 52.25809 12.00181 7758 ft 219 kts 156°
2026-04-21 16:09 52.24368 12.01008 7764 ft 219 kts 156°
2026-04-21 16:09 52.22939 12.01830 7765 ft 219 kts 156°
2026-04-21 16:09 52.21508 12.02653 7765 ft 219 kts 156°
2026-04-21 16:09 52.20078 12.03476 7761 ft 219 kts 156°
2026-04-21 16:10 52.18644 12.04302 7755 ft 219 kts 156°
2026-04-21 16:10 52.17206 12.05126 7756 ft 218 kts 156°
2026-04-21 16:10 52.15772 12.05946 7758 ft 218 kts 156°
2026-04-21 16:10 52.14352 12.06761 7756 ft 218 kts 156°
2026-04-21 16:11 52.12919 12.07583 7753 ft 218 kts 156°
2026-04-21 16:11 52.11487 12.08403 7751 ft 218 kts 156°
2026-04-21 16:11 52.10063 12.09216 7752 ft 219 kts 156°
2026-04-21 16:11 52.08613 12.10043 7754 ft 219 kts 156°
2026-04-21 16:12 52.07666 12.10584 7755 ft 219 kts 156°
2026-04-21 16:12 52.05753 12.11677 7751 ft 219 kts 156°
2026-04-21 16:12 52.04317 12.12493 7754 ft 219 kts 156°
2026-04-21 16:12 52.02891 12.13306 7754 ft 219 kts 156°
2026-04-21 16:13 52.01452 12.14128 7751 ft 218 kts 156°
2026-04-21 16:13 52.00063 12.15094 7735 ft 214 kts 139°
2026-04-21 16:13 51.99145 12.16902 7759 ft 207 kts 122°
2026-04-21 16:13 51.98269 12.18742 7752 ft 208 kts 123°
2026-04-21 16:14 51.97393 12.20632 7751 ft 209 kts 123°
2026-04-21 16:14 51.96523 12.22492 7750 ft 209 kts 123°
2026-04-21 16:14 51.95635 12.24387 7750 ft 209 kts 123°
2026-04-21 16:14 51.94756 12.26265 7747 ft 210 kts 123°
2026-04-21 16:15 51.93875 12.28142 7745 ft 210 kts 123°
2026-04-21 16:15 51.93001 12.29998 7744 ft 210 kts 123°
2026-04-21 16:15 51.92115 12.31884 7744 ft 210 kts 123°
2026-04-21 16:15 51.91230 12.33762 7742 ft 210 kts 123°
2026-04-21 16:16 51.90346 12.35640 7743 ft 210 kts 123°
2026-04-21 16:16 51.89463 12.37514 7737 ft 210 kts 123°
2026-04-21 16:16 51.88581 12.39384 7738 ft 209 kts 123°
2026-04-21 16:16 51.87699 12.41249 7739 ft 209 kts 123°
2026-04-21 16:17 51.86806 12.43140 7739 ft 209 kts 123°
2026-04-21 16:17 51.85923 12.45009 7738 ft 210 kts 123°
2026-04-21 16:17 51.85036 12.46880 7736 ft 210 kts 123°
2026-04-21 16:17 51.84155 12.48742 7733 ft 210 kts 123°
2026-04-21 16:18 51.83268 12.50612 7734 ft 210 kts 123°
2026-04-21 16:18 51.82380 12.52485 7734 ft 210 kts 123°
2026-04-21 16:18 51.81493 12.54353 7733 ft 210 kts 123°
2026-04-21 16:18 51.80612 12.56209 7730 ft 210 kts 123°
2026-04-21 16:19 51.79716 12.58094 7730 ft 210 kts 123°
2026-04-21 16:19 51.78828 12.59960 7729 ft 210 kts 123°
2026-04-21 16:19 51.77942 12.61824 7725 ft 210 kts 123°
2026-04-21 16:19 51.77053 12.63691 7724 ft 210 kts 123°
2026-04-21 16:20 51.76171 12.65541 7727 ft 210 kts 124°
2026-04-21 16:20 51.75285 12.67399 7727 ft 210 kts 124°
2026-04-21 16:20 51.74390 12.69275 7734 ft 210 kts 124°
2026-04-21 16:20 51.73504 12.71127 7723 ft 210 kts 123°
2026-04-21 16:21 51.72607 12.72992 7711 ft 211 kts 124°
2026-04-21 16:21 51.71704 12.74866 7722 ft 211 kts 124°
2026-04-21 16:21 51.70810 12.76746 7721 ft 211 kts 123°
2026-04-21 16:21 51.69917 12.78617 7726 ft 211 kts 124°
2026-04-21 16:22 51.69039 12.80451 7749 ft 207 kts 124°
2026-04-21 16:22 51.68150 12.82305 7742 ft 207 kts 124°
2026-04-21 16:22 51.67271 12.84135 7734 ft 207 kts 124°
2026-04-21 16:22 51.66393 12.85960 7732 ft 206 kts 124°
2026-04-21 16:23 51.65522 12.87775 7747 ft 205 kts 124°
2026-04-21 16:23 51.64646 12.89593 7743 ft 206 kts 123°
2026-04-21 16:23 51.63771 12.91409 7738 ft 206 kts 123°
2026-04-21 16:23 51.62893 12.93234 7733 ft 205 kts 123°
2026-04-21 16:24 51.62027 12.95028 7743 ft 205 kts 123°
2026-04-21 16:24 51.61151 12.96843 7738 ft 206 kts 123°
2026-04-21 16:24 51.60273 12.98663 7737 ft 207 kts 123°
2026-04-21 16:24 51.59385 13.00503 7738 ft 209 kts 123°
2026-04-21 16:25 51.58487 13.02362 7724 ft 211 kts 123°
2026-04-21 16:25 51.57553 13.04178 7719 ft 215 kts 134°
2026-04-21 16:25 51.56343 13.05622 7749 ft 216 kts 139°
2026-04-21 16:25 51.55123 13.07008 7739 ft 219 kts 142°
2026-04-21 16:26 51.53852 13.08358 7736 ft 220 kts 143°
2026-04-21 16:26 51.52555 13.09699 7730 ft 220 kts 143°
2026-04-21 16:26 51.51268 13.11003 7731 ft 219 kts 143°
2026-04-21 16:26 51.49970 13.12307 7731 ft 219 kts 144°
2026-04-21 16:27 51.48688 13.13588 7723 ft 219 kts 143°
2026-04-21 16:27 51.47401 13.14871 7732 ft 222 kts 143°
2026-04-21 16:27 51.46072 13.16196 7728 ft 224 kts 144°
2026-04-21 16:27 51.44752 13.17507 7726 ft 226 kts 144°
2026-04-21 16:28 51.43404 13.18849 7727 ft 227 kts 144°
2026-04-21 16:28 51.42073 13.20168 7725 ft 228 kts 144°
2026-04-21 16:28 51.40718 13.21511 7727 ft 229 kts 144°
2026-04-21 16:28 51.39358 13.22856 7727 ft 229 kts 144°
2026-04-21 16:29 51.38010 13.24186 7724 ft 229 kts 144°
2026-04-21 16:29 51.36646 13.25533 7722 ft 229 kts 144°
2026-04-21 16:29 51.35285 13.26873 7724 ft 229 kts 144°
2026-04-21 16:29 51.33942 13.28198 7720 ft 229 kts 144°
2026-04-21 16:30 51.32588 13.29535 7723 ft 229 kts 144°
2026-04-21 16:30 51.31227 13.30875 7723 ft 229 kts 144°
2026-04-21 16:30 51.29891 13.32189 7719 ft 225 kts 144°
2026-04-21 16:30 51.28581 13.33479 7713 ft 214 kts 144°
2026-04-21 16:31 51.27333 13.34706 7715 ft 206 kts 143°
2026-04-21 16:31 51.26137 13.35881 7718 ft 201 kts 143°
2026-04-21 16:31 51.24959 13.37041 7718 ft 197 kts 143°
2026-04-21 16:31 51.23811 13.38168 7714 ft 191 kts 143°
2026-04-21 16:32 51.22707 13.39249 7708 ft 182 kts 143°
2026-04-21 16:32 51.21653 13.40284 7710 ft 175 kts 143°
2026-04-21 16:32 51.20620 13.41295 7712 ft 170 kts 142°
2026-04-21 16:32 51.19631 13.42265 7712 ft 166 kts 142°
2026-04-21 16:33 51.18664 13.43211 7712 ft 162 kts 142°
2026-04-21 16:33 51.17707 13.44148 7710 ft 159 kts 142°
2026-04-21 16:33 51.16765 13.45069 7712 ft 157 kts 142°
2026-04-21 16:33 51.15842 13.45971 7708 ft 152 kts 142°
2026-04-21 16:34 51.14978 13.46812 7696 ft 141 kts 142°
2026-04-21 16:34 51.14166 13.47604 7694 ft 132 kts 141°
2026-04-21 16:34 51.13402 13.48352 7668 ft 130 kts 141°
2026-04-21 16:34 51.12628 13.49111 7519 ft 131 kts 141°
2026-04-21 16:35 51.11833 13.49892 7320 ft 134 kts 142°
2026-04-21 16:35 51.11038 13.50668 7150 ft 135 kts 141°
2026-04-21 16:35 51.10249 13.51435 6988 ft 134 kts 141°
2026-04-21 16:35 51.09454 13.52208 6833 ft 133 kts 141°
2026-04-21 16:36 51.08659 13.52982 6680 ft 133 kts 142°
2026-04-21 16:36 51.07870 13.53750 6528 ft 132 kts 140°
2026-04-21 16:36 51.07090 13.54505 6371 ft 133 kts 140°
2026-04-21 16:36 51.06308 13.55273 6156 ft 132 kts 138°
2026-04-21 16:37 51.05517 13.56051 5964 ft 133 kts 142°
2026-04-21 16:37 51.04721 13.56811 5769 ft 133 kts 143°
2026-04-21 16:37 51.03941 13.57575 5579 ft 132 kts 142°
2026-04-21 16:37 51.03170 13.58362 5383 ft 130 kts 130°
2026-04-21 16:38 51.02784 13.59577 5113 ft 124 kts 86°
2026-04-21 16:38 51.03081 13.60764 4955 ft 115 kts 40°
2026-04-21 16:38 51.03838 13.61109 4937 ft 117 kts 353°
2026-04-21 16:38 51.04564 13.60506 4943 ft 119 kts 334°
2026-04-21 16:39 51.05321 13.59988 4974 ft 118 kts 349°
2026-04-21 16:39 51.06114 13.59594 4964 ft 122 kts 335°
2026-04-21 16:39 51.06715 13.58622 4962 ft 125 kts 316°
2026-04-21 16:39 51.07281 13.57591 4963 ft 124 kts 318°
2026-04-21 16:40 51.07856 13.56552 4961 ft 125 kts 318°
2026-04-21 16:40 51.08431 13.55509 4969 ft 125 kts 317°
2026-04-21 16:40 51.08879 13.54320 4949 ft 135 kts 286°
2026-04-21 16:40 51.08724 13.52830 4942 ft 142 kts 240°
2026-04-21 16:41 51.08009 13.51739 4970 ft 142 kts 216°
2026-04-21 16:41 51.07238 13.50773 4973 ft 142 kts 219°
2026-04-21 16:41 51.06479 13.49775 4970 ft 141 kts 220°
2026-04-21 16:41 51.05732 13.48772 4968 ft 140 kts 220°
2026-04-21 16:42 51.04993 13.47771 4959 ft 140 kts 220°
2026-04-21 16:42 51.04250 13.46762 4942 ft 140 kts 220°
2026-04-21 16:42 51.03518 13.45767 4924 ft 139 kts 220°
2026-04-21 16:42 51.02783 13.44767 4906 ft 138 kts 220°
2026-04-21 16:43 51.02056 13.43777 4891 ft 137 kts 220°
2026-04-21 16:43 51.01314 13.42767 4958 ft 144 kts 220°
2026-04-21 16:43 51.00528 13.41699 4985 ft 154 kts 220°
2026-04-21 16:43 50.99701 13.40576 4973 ft 157 kts 220°
2026-04-21 16:44 50.98818 13.39573 4953 ft 155 kts 198°
2026-04-21 16:44 50.97803 13.39544 4842 ft 144 kts 153°
2026-04-21 16:44 50.97054 13.40491 4650 ft 139 kts 121°
2026-04-21 16:44 50.96443 13.41676 4506 ft 140 kts 124°
2026-04-21 16:45 50.95815 13.42845 4358 ft 138 kts 124°
2026-04-21 16:45 50.95193 13.43997 4169 ft 138 kts 124°
2026-04-21 16:45 50.94572 13.45147 3980 ft 137 kts 124°
2026-04-21 16:45 50.93946 13.46301 3955 ft 137 kts 124°
2026-04-21 16:46 50.93383 13.47498 3947 ft 132 kts 105°
2026-04-21 16:46 50.93402 13.48835 3956 ft 122 kts 61°
2026-04-21 16:46 50.93946 13.49851 3963 ft 120 kts 44°
2026-04-21 16:46 50.94537 13.50784 3958 ft 121 kts 43°
2026-04-21 16:47 50.95151 13.51689 3954 ft 121 kts 41°
2026-04-21 16:47 50.95780 13.52583 3951 ft 121 kts 40°
2026-04-21 16:47 50.96418 13.53470 3949 ft 121 kts 40°
2026-04-21 16:47 50.97050 13.54342 3949 ft 121 kts 40°
2026-04-21 16:48 50.97686 13.55214 3956 ft 120 kts 40°
2026-04-21 16:48 50.98315 13.56075 3960 ft 120 kts 40°
2026-04-21 16:48 50.98949 13.56942 3964 ft 119 kts 40°
2026-04-21 16:48 50.99579 13.57802 3957 ft 120 kts 40°
2026-04-21 16:49 51.00203 13.58654 3832 ft 117 kts 40°
2026-04-21 16:49 51.00816 13.59493 3704 ft 117 kts 40°
2026-04-21 16:49 51.01423 13.60324 3627 ft 109 kts 40°
2026-04-21 16:49 51.01995 13.61111 3528 ft 111 kts 40°
2026-04-21 16:50 51.02585 13.61918 3356 ft 113 kts 40°
2026-04-21 16:50 51.03176 13.62725 3183 ft 111 kts 40°
2026-04-21 16:50 51.03764 13.63527 3017 ft 111 kts 40°
2026-04-21 16:50 51.04340 13.64318 2862 ft 110 kts 40°
2026-04-21 16:51 51.04921 13.65116 2710 ft 110 kts 40°
2026-04-21 16:51 51.05501 13.65910 2561 ft 110 kts 40°
2026-04-21 16:51 51.06085 13.66705 2413 ft 110 kts 43°
2026-04-21 16:51 51.06652 13.67495 2265 ft 110 kts 39°
2026-04-21 16:52 51.07238 13.68280 2115 ft 108 kts 40°
2026-04-21 16:52 51.07790 13.69045 1960 ft 102 kts 43°
2026-04-21 16:52 51.08319 13.69798 1773 ft 108 kts 45°
2026-04-21 16:52 51.08885 13.70650 1703 ft 115 kts 42°
2026-04-21 16:53 51.09499 13.71468 1531 ft 118 kts 34°
2026-04-21 16:53 51.10154 13.72330 1393 ft 121 kts 41°
2026-04-21 16:53 51.10781 13.73173 1240 ft 119 kts 37°
2026-04-21 16:53 51.11420 13.74019 1083 ft 117 kts 41°
2026-04-21 16:54 51.12021 13.74844 895 ft 115 kts 40°
2026-04-21 16:54 51.12607 13.75659 764 ft 103 kts 40°
2026-04-21 16:54 51.13070 13.76305 733 ft 64 kts 45°
2026-04-21 16:54 51.13284 13.76597 727 ft 30 kts 42°
2026-04-21 16:55 51.13351 13.76769 725 ft 16 kts 126°
2026-04-21 16:55 51.13292 13.76883 729 ft 12 kts 131°
2026-04-21 16:55 51.13241 13.76970 732 ft 17 kts 154°
2026-04-21 16:55 51.13103 13.76821 735 ft 31 kts 222°
2026-04-21 16:56 51.12965 13.76630 739 ft 18 kts 221°
2026-04-21 16:56 51.12814 13.76423 743 ft 34 kts 228°
2026-04-21 16:56 51.12649 13.76196 747 ft 32 kts 221°
2026-04-21 16:56 51.12484 13.75969 750 ft 27 kts 218°
2026-04-21 16:57 51.12379 13.76026 751 ft 15 kts 138°
2026-04-21 16:57 51.12305 13.75973 751 ft 7 kts 173°
2026-04-21 16:57 51.12310 13.75983 752 ft 0 kts 286°